Home   Weather   Kotka   Past weeks

Flag for Finland Past Weather in Kotka, Finland — Yesterday and Last 2 Weeks

Now
52 °F

Sunny.


Feels Like: 50 °F
Forecast: 55 / 65 °F
Wind: 6 mph from Northwest

Location: Utti

Current Time: Jul 21, 2017 at 5:53:26 am

Latest Report: Jul 21, 2017 at 5:20 am


Visibility: 10 mi

Pressure: 29.92 "Hg

Humidity: 94%

Dew Point: 50 °F

Location of KotkaLocation

Past Weather in Kotka — Graph

°F

Kotka Temperature Yesterday

Maximum temperature yesterday: 63 °F (at 7:50 pm)
Minimum temperature yesterday: 54 °F (at 12:20 am)
Average temperature yesterday: 57 °F

High & Low Weather Summary for the Past Weeks

 TemperatureHumidityPressure
High75 °F (Jul 10, 2:50 pm)100% (Jul 10, 3:20 am)30.07 "Hg (Jul 10, 3:20 am)
Low46 °F (Jul 9, 4:50 am)31% (Jul 8, 2:50 pm)29.47 "Hg (Jul 12, 12:50 pm)
Average59 °F72%29.81 "Hg
* Reported Jul 6 4:20 am — Jul 21 4:20 am, Kotka. Weather by CustomWeather, © 2017

Note: Actual official high and low records may vary slightly from our data, if they occured in-between our weather recording intervals... More about our weather records

Advertising

Kotka Weather History for the Previous 24 Hours

Scroll right to see more
 ConditionsComfort  
Time TempWeatherWind HumidityBarometerVisibility
4:20 am
Fri, Jul 21
52 °FSunny.5 mph94%29.92 "Hg10 mi
3:50 am52 °FClear.5 mph94%29.92 "Hg10 mi
3:20 am52 °FClear.5 mph94%29.92 "Hg10 mi
2:50 am52 °FClear.6 mph94%29.92 "Hg10 mi
2:20 am54 °FClear.5 mph88%29.92 "Hg10 mi
1:50 am54 °FClear.5 mph94%29.92 "Hg10 mi
1:20 am50 °FClear.2 mph94%29.92 "Hg10 mi
12:50 am54 °FClear.5 mph94%29.92 "Hg10 mi
12:20 am52 °FClear.1 mph94%29.92 "Hg10 mi
11:50 pm
Thu, Jul 20
55 °FClear.2 mph82%29.89 "Hg10 mi
11:20 pm55 °FClear.2 mph88%29.89 "Hg10 mi
10:50 pm55 °FClear.2 mph94%29.89 "Hg10 mi
10:20 pm55 °FClear.3 mph88%29.89 "Hg10 mi
9:50 pm57 °FSunny.5 mph82%29.89 "Hg10 mi
8:50 pm61 °FSunny.3 mph68%29.89 "Hg10 mi
8:20 pm63 °FPassing clouds.6 mph64%29.89 "HgN/A
7:50 pm63 °FPassing clouds.5 mph68%29.89 "HgN/A
7:20 pm61 °FPassing clouds.6 mph72%29.89 "HgN/A
6:50 pm61 °FLight rain. Partly sunny.3 mph77%29.89 "HgN/A
6:20 pm59 °FSprinkles. Overcast.5 mph82%29.89 "HgN/A
5:50 pm57 °FRain showers. Partly sunny.3 mph82%29.89 "Hg6 mi
5:20 pm57 °FMore clouds than sun.6 mph88%29.89 "HgN/A
4:50 pm57 °FSprinkles. Overcast.5 mph82%29.89 "HgN/A
4:20 pm57 °FLots of rain. Overcast.3 mph88%29.89 "HgN/A
3:50 pm59 °FSprinkles. Scattered clouds.7 mph82%29.89 "HgN/A
2:50 pm59 °FScattered clouds.9 mph82%29.89 "HgN/A
2:20 pm57 °FScattered showers. Partly sunny.7 mph88%29.89 "HgN/A
1:50 pm57 °FScattered showers. Broken clouds.6 mph88%29.89 "HgN/A
1:20 pm57 °FSprinkles. Broken clouds.8 mph77%29.89 "HgN/A
12:50 pm61 °FSprinkles. Broken clouds.5 mph63%29.89 "HgN/A
12:20 pm61 °FScattered showers. Broken clouds.5 mph68%29.89 "HgN/A
11:50 am59 °FBroken clouds.6 mph68%29.89 "HgN/A
11:20 am59 °FSunny.7 mph68%29.89 "Hg10 mi
10:50 am57 °FPartly sunny.8 mph77%29.89 "HgN/A
10:20 am57 °FPartly sunny.7 mph77%29.89 "HgN/A
9:50 am57 °FPartly sunny.7 mph82%29.89 "HgN/A
9:20 am57 °FPartly sunny.7 mph82%29.86 "HgN/A
8:50 am55 °FPartly sunny.7 mph88%29.86 "HgN/A
8:20 am55 °FPartly sunny.6 mph88%29.86 "HgN/A
7:50 am54 °FPartly sunny.7 mph94%29.86 "HgN/A
7:20 am54 °FPartly sunny.6 mph94%29.86 "HgN/A
6:50 am54 °FPartly sunny.7 mph94%29.86 "HgN/A
6:20 am54 °FPartly sunny.5 mph88%29.86 "HgN/A
5:50 am54 °FPartly sunny.8 mph88%29.86 "HgN/A
5:20 am54 °FLow clouds.7 mph88%29.86 "HgN/A
Weather by CustomWeather, © 2017

See weather overviewHow to use our weather pages